Weather History for Juan Santamaria, Costa Rica

Change the Weather History Date:

Tuesday, September 11, 2012

  Actual Average Record
Temperature  
Mean Temperature 75 °F -  
Max Temperature 82 °F 79 °F - ()
Min Temperature 68 °F 63 °F - ()
Cooling Degree Days 10    
Growing Degree Days 25 (Base 50)    
Moisture  
Dew Point 60 °F    
Average Humidity 63    
Maximum Humidity 73    
Minimum Humidity 45    
Precipitation  
Precipitation 0.08 in 0.45 in - ()
Sea Level Pressure  
Sea Level Pressure 29.97 in    
Wind  
Wind Speed 8 mph ()    
Max Wind Speed 18 mph    
Max Gust Speed 38 mph    
Visibility 8.3 miles    
Events Rain    
T = Trace of Precipitation, MM = Missing Value Source: Averaged Metar Reports

Daily Weather History Graph

Daily Weather History Graph

Search for Another Location

Airport:

Trip Planner

Search our weather history database for the weather conditions in past years. The results will help you decide how hot, cold, wet, or windy it might be!

Date:

Astronomy

Sep. 11, 2012 Rise Set
Actual Time 5:26 AM CST 5:39 PM CST
Civil Twilight 5:05 AM CST 6:00 PM CST
Nautical Twilight 4:41 AM CST 6:24 PM CST
Astronomical Twilight 4:16 AM CST 6:49 PM CST
Moon 1:23 AM CST (9/11) 2:13 PM CST (9/11)
Length of Visible Light 12h 54m
Length of Day
12h 12m
Waning Crescent, 21% of the Moon is Illuminated
Sep 11
Waning Crescent
Sep 15
New
Sep 22
First Quarter
Sep 29
Full
Oct 8
Last Quarter

Hourly Weather History & Observations

Time (CST) Temp. Heat Index Dew Point Humidity Pressure Visibility Wind Dir Wind Speed Gust Speed Precip Events Conditions
12:00 AM 72 °F - 58 °F 52% 29.85 in 12 mi ESE 10.4 mph - -   Partly Cloudy
12:00 AM 71.6 °F - 59.0 °F 64% 30.01 in - ESE 10.4 mph - N/A   Clear
1:00 AM 71.6 °F - 57.2 °F 60% 29.99 in - East 10.4 mph - N/A   Clear
2:00 AM 69.8 °F - 59.0 °F 68% 29.97 in - East 4.6 mph - N/A   Clear
3:00 AM 71 °F - 59 °F 57% 29.83 in 12 mi East 4.6 mph - -   Partly Cloudy
3:00 AM 69.8 °F - 59.0 °F 68% 29.98 in - East 4.6 mph - N/A   Clear
4:00 AM 69.8 °F - 59.0 °F 68% 30.00 in - ESE 9.2 mph - N/A   Clear
5:00 AM 68.0 °F - 59.0 °F 73% 30.02 in - East 6.9 mph - N/A   Clear
6:00 AM 69 °F - 59 °F 62% 29.88 in 12 mi East 5.8 mph - -   Scattered Clouds
6:00 AM 69.8 °F - 59.0 °F 68% 30.02 in 6.2 mi East 5.8 mph - N/A   Partly Cloudy
7:00 AM 73.4 °F - 60.8 °F 65% 30.04 in - East 8.1 mph - N/A   Clear
8:00 AM 75.2 °F - 62.6 °F 65% 30.04 in - ESE 6.9 mph - N/A   Clear
9:00 AM 81 °F - 63 °F 45% 29.86 in 12 mi East 5.8 mph - -   Clear
9:00 AM 80.6 °F 81.8 °F 62.6 °F 54% 30.04 in - East 5.8 mph - N/A   Clear
10:00 AM 82.4 °F 82.9 °F 60.8 °F 48% 30.05 in 6.2 mi ENE 13.8 mph - N/A   Scattered Clouds
11:00 AM 73.4 °F - 60.8 °F 65% 30.07 in 1.9 mi ENE 18.4 mph 38.0 mph N/A Rain Rain
11:20 AM 71.6 °F - 62.6 °F 73% 30.04 in 6.2 mi NNE 16.1 mph 27.6 mph N/A   Mostly Cloudy
12:00 PM 71 °F - 63 °F 68% 29.88 in 9 mi East 11.5 mph - - Rain Light Rain
12:00 PM 71.6 °F - 62.6 °F 73% 30.04 in 6.2 mi East 11.5 mph 23.0 mph N/A Rain Light Rain
1:00 PM 73.4 °F - 59.0 °F 61% 29.98 in - ESE 10.4 mph - N/A   Clear
2:00 PM 73.4 °F - 60.8 °F 65% 29.96 in - ENE 11.5 mph 23.0 mph N/A   Clear
3:00 PM 76 °F - 61 °F 49% 29.81 in 12 mi East 11.5 mph - -   Overcast
3:00 PM 77.0 °F - 60.8 °F 57% 29.96 in 6.2 mi East 11.5 mph - N/A   Mostly Cloudy
4:00 PM 75.2 °F - 60.8 °F 61% 29.95 in 6.2 mi East 9.2 mph - N/A   Mostly Cloudy
5:00 PM 71.6 °F - 62.6 °F 73% 29.96 in 6.2 mi ESE 11.5 mph - N/A   Mostly Cloudy
6:00 PM 73 °F - 59 °F 53% 29.85 in 12 mi East 9.2 mph - -   Overcast
6:00 PM 73.4 °F - 59.0 °F 61% 29.99 in 6.2 mi East 9.2 mph - N/A   Mostly Cloudy
7:00 PM 73.4 °F - 59.0 °F 61% 30.01 in 6.2 mi East 8.1 mph - N/A   Mostly Cloudy
8:00 PM 71.6 °F - 60.8 °F 69% 30.02 in 6.2 mi East 5.8 mph - N/A   Scattered Clouds
9:00 PM 70 °F - 61 °F 66% 29.85 in 12 mi East 3.5 mph - -   Partly Cloudy
9:00 PM 69.8 °F - 60.8 °F 73% 30.03 in - East 3.5 mph - N/A   Clear
10:00 PM 71.6 °F - 60.8 °F 69% 30.04 in - East 10.4 mph - N/A   Clear
11:00 PM 69.8 °F - 60.8 °F 73% 30.03 in - East 8.1 mph - N/A   Clear